�������l�o���
Date,Time,MP-1(��Sv/h),MP-2(��Sv/h),MP-3(��Sv/h),MP-4(��Sv/h),MP-5(��Sv/h),MP-6(��Sv/h),MP-7(��Sv/h),MP-8(��Sv/h),����,����(m/s),���J
2021/02/07,00:00,0.671,0.963,0.614,1.217,0.860,0.382,0.675,0.634,���쐼,4.2,��
2021/02/07,00:10,0.669,0.959,0.613,1.217,0.858,0.383,0.674,0.634,��,5.3,��
2021/02/07,00:20,0.672,0.961,0.614,1.217,0.860,0.382,0.675,0.633,��,4.6,��
2021/02/07,00:30,0.669,0.963,0.614,1.218,0.859,0.383,0.676,0.634,��,4.2,��
2021/02/07,00:40,0.672,0.962,0.614,1.221,0.860,0.382,0.675,0.634,���k��,2.3,��
2021/02/07,00:50,0.669,0.962,0.613,1.217,0.860,0.381,0.676,0.634,�k��,0.8,��
2021/02/07,01:00,0.669,0.963,0.613,1.215,0.858,0.382,0.674,0.633,���k��,1.1,��
2021/02/07,01:10,0.670,0.964,0.613,1.218,0.858,0.381,0.673,0.634,�k�k��,1.7,��
2021/02/07,01:20,0.669,0.962,0.612,1.218,0.857,0.381,0.675,0.633,�k�k��,1.9,��
2021/02/07,01:30,0.670,0.962,0.614,1.219,0.860,0.383,0.675,0.633,�k�k��,3.0,��
2021/02/07,01:40,0.671,0.962,0.612,1.219,0.858,0.382,0.673,0.634,�k�k��,3.5,��
2021/02/07,01:50,0.670,0.962,0.613,1.217,0.859,0.382,0.676,0.634,�k�k��,3.3,��
2021/02/07,02:00,0.671,0.961,0.612,1.218,0.859,0.382,0.674,0.634,�k�k��,4.5,��
2021/02/07,02:10,0.669,0.962,0.612,1.217,0.858,0.381,0.675,0.634,�k�k��,3.9,��
2021/02/07,02:20,0.669,0.963,0.613,1.217,0.859,0.382,0.676,0.635,�k��,4.6,��
2021/02/07,02:30,0.672,0.961,0.613,1.218,0.861,0.382,0.674,0.635,�k��,4.0,��
2021/02/07,02:40,0.670,0.962,0.614,1.217,0.858,0.382,0.674,0.634,���k��,5.2,��
2021/02/07,02:50,0.670,0.961,0.613,1.218,0.859,0.383,0.675,0.633,���k��,4.8,��
2021/02/07,03:00,0.671,0.960,0.616,1.217,0.858,0.383,0.676,0.634,���k��,6.5,��
2021/02/07,03:10,0.671,0.963,0.613,1.218,0.858,0.381,0.674,0.633,��,4.8,��
2021/02/07,03:20,0.671,0.962,0.612,1.217,0.861,0.381,0.676,0.634,��,4.5,��
2021/02/07,03:30,0.670,0.965,0.611,1.216,0.857,0.381,0.675,0.634,���쐼,4.3,��
2021/02/07,03:40,0.672,0.962,0.613,1.217,0.859,0.382,0.675,0.635,���쐼,5.2,��
2021/02/07,03:50,0.671,0.963,0.613,1.219,0.857,0.381,0.675,0.633,���쐼,5.7,��
2021/02/07,04:00,0.670,0.961,0.613,1.218,0.861,0.383,0.675,0.634,���쐼,4.8,��
2021/02/07,04:10,0.671,0.963,0.615,1.218,0.860,0.382,0.675,0.634,�쐼,4.4,��
2021/02/07,04:20,0.671,0.961,0.615,1.219,0.858,0.381,0.673,0.633,���쐼,3.5,��
2021/02/07,04:30,0.668,0.963,0.615,1.220,0.859,0.382,0.674,0.635,�쐼,2.8,��
2021/02/07,04:40,0.670,0.964,0.612,1.218,0.859,0.381,0.674,0.633,��,0.8,��
2021/02/07,04:50,0.670,0.961,0.613,1.217,0.859,0.382,0.674,0.634,-,CALM,��
2021/02/07,05:00,0.671,0.961,0.613,1.216,0.859,0.382,0.674,0.635,�k��,1.7,��
2021/02/07,05:10,0.670,0.960,0.613,1.216,0.858,0.380,0.674,0.634,���k��,0.9,��
2021/02/07,05:20,0.670,0.961,0.612,1.217,0.861,0.381,0.674,0.633,�쐼,0.9,��
2021/02/07,05:30,0.670,0.961,0.611,1.218,0.858,0.381,0.674,0.633,��,2.3,��
2021/02/07,05:40,0.668,0.961,0.611,1.216,0.859,0.382,0.674,0.634,��,4.5,��
2021/02/07,05:50,0.671,0.961,0.613,1.219,0.858,0.383,0.675,0.634,��,4.9,��
2021/02/07,06:00,0.671,0.963,0.614,1.216,0.860,0.382,0.675,0.634,��,4.6,��
2021/02/07,06:10,0.669,0.962,0.615,1.217,0.857,0.382,0.674,0.633,���k��,4.1,��
2021/02/07,06:20,0.671,0.962,0.614,1.219,0.858,0.381,0.674,0.633,���k��,3.7,��
2021/02/07,06:30,0.671,0.961,0.613,1.218,0.861,0.382,0.674,0.634,���k��,3.8,��
2021/02/07,06:40,0.671,0.962,0.612,1.218,0.860,0.382,0.674,0.634,��,2.3,��
2021/02/07,06:50,0.670,0.962,0.611,1.217,0.859,0.382,0.672,0.634,��,3.3,��
2021/02/07,07:00,0.670,0.962,0.611,1.216,0.858,0.381,0.675,0.634,��,3.5,��
2021/02/07,07:10,0.669,0.962,0.613,1.218,0.857,0.382,0.677,0.635,��,3.5,��
2021/02/07,07:20,0.670,0.963,0.613,1.218,0.859,0.382,0.674,0.633,���쐼,5.1,��
2021/02/07,07:30,0.671,0.963,0.612,1.219,0.859,0.383,0.673,0.633,���쐼,6.4,��
2021/02/07,07:40,0.669,0.963,0.612,1.218,0.858,0.382,0.674,0.631,���쐼,4.6,��
2021/02/07,07:50,0.668,0.961,0.613,1.219,0.859,0.382,0.674,0.634,���쐼,3.7,��
2021/02/07,08:00,0.670,0.962,0.613,1.215,0.857,0.382,0.675,0.634,���쐼,2.9,��
2021/02/07,08:10,0.670,0.964,0.612,1.218,0.859,0.382,0.675,0.634,���쐼,3.2,��
2021/02/07,08:20,0.671,0.964,0.614,1.219,0.859,0.381,0.674,0.635,���쐼,3.2,��
2021/02/07,08:30,0.669,0.964,0.614,1.216,0.858,0.382,0.676,0.634,���쐼,2.6,��
2021/02/07,08:40,0.670,0.964,0.612,1.219,0.858,0.383,0.676,0.636,��쐼,2.9,��
2021/02/07,08:50,0.673,0.965,0.611,1.218,0.861,0.381,0.676,0.635,��쐼,2.6,��
2021/02/07,09:00,0.672,0.965,0.614,1.218,0.861,0.382,0.677,0.634,���쐼,3.3,��
2021/02/07,09:10,0.670,0.964,0.613,1.217,0.860,0.383,0.674,0.633,��,4.9,��
2021/02/07,09:20,0.672,0.960,0.613,1.218,0.860,0.382,0.674,0.635,���쐼,5.5,��
2021/02/07,09:30,0.672,0.963,0.613,1.218,0.860,0.383,0.676,0.634,��,7.1,��
2021/02/07,09:40,0.672,0.962,0.615,1.219,0.861,0.382,0.674,0.636,��,7.0,��
2021/02/07,09:50,0.671,0.964,0.614,1.219,0.860,0.382,0.674,0.635,��,7.8,��
2021/02/07,10:00,0.671,0.963,0.614,1.220,0.862,0.383,0.673,0.634,��,9.8,��
2021/02/07,10:10,0.674,0.961,0.615,1.218,0.861,0.383,0.673,0.635,���쐼,9.2,��
2021/02/07,10:20,0.673,0.963,0.614,1.218,0.862,0.385,0.674,0.636,��,10.8,��
2021/02/07,10:30,0.672,0.963,0.616,1.219,0.861,0.383,0.674,0.635,��,8.2,��
2021/02/07,10:40,0.673,0.960,0.615,1.219,0.860,0.384,0.675,0.634,��,11.0,��
2021/02/07,10:50,0.674,0.961,0.615,1.219,0.864,0.382,0.673,0.635,���쐼,8.9,��
2021/02/07,11:00,0.672,0.962,0.616,1.220,0.861,0.382,0.675,0.637,���쐼,7.2,��
2021/02/07,11:10,0.673,0.962,0.614,1.220,0.863,0.383,0.676,0.636,��,10.2,��
2021/02/07,11:20,0.672,0.964,0.615,1.222,0.861,0.381,0.673,0.636,��,12.0,��
2021/02/07,11:30,0.672,0.959,0.616,1.223,0.863,0.383,0.675,0.635,��,9.3,��
2021/02/07,11:40,0.671,0.963,0.616,1.219,0.860,0.383,0.675,0.637,��,5.8,��
2021/02/07,11:50,0.672,0.961,0.615,1.221,0.860,0.382,0.673,0.634,��,8.5,��
2021/02/07,12:00,0.672,0.963,0.617,1.219,0.857,0.381,0.674,0.637,��,9.3,��
2021/02/07,12:10,0.671,0.961,0.616,1.223,0.857,0.383,0.676,0.634,��,12.5,��
2021/02/07,12:20,0.673,0.964,0.614,1.220,0.861,0.382,0.675,0.633,��,10.8,��
2021/02/07,12:30,0.675,0.962,0.616,1.222,0.862,0.383,0.674,0.634,��,10.2,��
2021/02/07,12:40,0.674,0.964,0.615,1.219,0.862,0.383,0.674,0.635,��,11.0,��
2021/02/07,12:50,0.673,0.964,0.616,1.221,0.862,0.383,0.674,0.634,��,9.2,��
2021/02/07,13:00,0.673,0.964,0.614,1.220,0.860,0.384,0.675,0.636,��,11.3,�L
2021/02/07,13:10,0.670,0.965,0.612,1.222,0.860,0.383,0.674,0.634,��,9.8,��
2021/02/07,13:20,0.671,0.961,0.615,1.220,0.862,0.384,0.675,0.632,��,8.8,��
2021/02/07,13:30,0.670,0.965,0.615,1.222,0.862,0.384,0.673,0.632,���쐼,8.5,��
2021/02/07,13:40,0.671,0.963,0.612,1.221,0.861,0.384,0.674,0.632,���쐼,9.9,��
2021/02/07,13:50,0.671,0.963,0.615,1.220,0.860,0.383,0.674,0.633,���쐼,11.6,��
2021/02/07,14:00,0.671,0.964,0.613,1.221,0.860,0.384,0.675,0.632,��,12.4,��
2021/02/07,14:10,0.670,0.962,0.613,1.220,0.860,0.384,0.675,0.631,��,12.1,��
2021/02/07,14:20,0.671,0.962,0.615,1.222,0.862,0.385,0.673,0.633,��,9.8,��
2021/02/07,14:30,0.671,0.964,0.613,1.222,0.861,0.384,0.674,0.634,��,8.6,��
2021/02/07,14:40,0.672,0.963,0.614,1.223,0.861,0.384,0.675,0.632,��,11.4,��
2021/02/07,14:50,0.673,0.965,0.614,1.223,0.861,0.383,0.673,0.633,��,10.2,��
2021/02/07,15:00,0.671,0.962,0.615,1.222,0.860,0.384,0.674,0.632,��,9.2,��
2021/02/07,15:10,0.672,0.962,0.614,1.221,0.864,0.383,0.674,0.633,��,9.3,��
2021/02/07,15:20,0.672,0.964,0.614,1.223,0.862,0.384,0.674,0.632,��,9.6,��
2021/02/07,15:30,0.671,0.965,0.615,1.222,0.859,0.383,0.673,0.634,���k��,9.3,��
2021/02/07,15:40,0.671,0.967,0.615,1.221,0.860,0.384,0.674,0.633,���k��,7.7,��
2021/02/07,15:50,0.672,0.966,0.615,1.221,0.861,0.383,0.673,0.635,���k��,7.8,�L
2021/02/07,16:00,0.672,0.968,0.614,1.221,0.863,0.382,0.674,0.634,���k��,8.1,�L
2021/02/07,16:10,0.673,0.970,0.614,1.225,0.862,0.382,0.674,0.636,���k��,6.8,�L
2021/02/07,16:20,0.671,0.966,0.615,1.221,0.860,0.382,0.674,0.634,�k��,7.7,��
2021/02/07,16:30,0.673,0.970,0.614,1.222,0.862,0.382,0.674,0.636,�k��,8.0,��
2021/02/07,16:40,0.674,0.967,0.614,1.220,0.862,0.381,0.672,0.635,�k��,6.7,��
2021/02/07,16:50,0.672,0.968,0.614,1.220,0.862,0.382,0.675,0.635,�k��,7.0,��
2021/02/07,17:00,0.673,0.967,0.615,1.223,0.861,0.384,0.674,0.635,�k��,5.8,��
2021/02/07,17:10,0.671,0.967,0.615,1.222,0.862,0.382,0.675,0.634,�k��,6.6,��
2021/02/07,17:20,0.672,0.969,0.613,1.221,0.864,0.383,0.675,0.635,�k��,6.8,��
2021/02/07,17:30,0.671,0.967,0.614,1.220,0.864,0.382,0.675,0.635,�k��,6.1,��
2021/02/07,17:40,0.672,0.969,0.615,1.220,0.863,0.383,0.676,0.635,�k��,5.3,��
2021/02/07,17:50,0.671,0.965,0.613,1.220,0.861,0.382,0.678,0.636,�k�k��,5.9,��
2021/02/07,18:00,0.672,0.966,0.614,1.221,0.862,0.382,0.676,0.636,�k�k��,5.1,��
2021/02/07,18:10,0.670,0.968,0.614,1.221,0.863,0.383,0.674,0.636,�k�k��,5.8,��
2021/02/07,18:20,0.672,0.968,0.616,1.223,0.863,0.383,0.675,0.634,�k��,5.2,��
2021/02/07,18:30,0.671,0.967,0.613,1.221,0.862,0.381,0.676,0.634,���k��,3.7,��
2021/02/07,18:40,0.671,0.968,0.615,1.221,0.862,0.383,0.674,0.635,�k��,2.8,��
2021/02/07,18:50,0.671,0.967,0.614,1.219,0.862,0.382,0.674,0.635,�k��,3.1,��
2021/02/07,19:00,0.670,0.968,0.612,1.221,0.861,0.383,0.675,0.633,�k�k��,4.4,��
2021/02/07,19:10,0.670,0.968,0.614,1.222,0.862,0.380,0.675,0.634,�k�k��,6.0,��
2021/02/07,19:20,0.671,0.966,0.615,1.221,0.862,0.381,0.675,0.633,�k�k��,4.9,��
2021/02/07,19:30,0.671,0.967,0.612,1.220,0.862,0.380,0.675,0.634,�k�k��,4.5,��
2021/02/07,19:40,0.669,0.968,0.613,1.219,0.863,0.382,0.676,0.634,�k�k��,4.2,��
2021/02/07,19:50,0.670,0.966,0.614,1.220,0.861,0.380,0.674,0.633,�k�k��,3.5,��
2021/02/07,20:00,0.669,0.968,0.612,1.220,0.862,0.382,0.674,0.633,�k�k��,3.3,��
2021/02/07,20:10,0.670,0.967,0.612,1.220,0.863,0.382,0.676,0.634,�k�k��,3.3,��
2021/02/07,20:20,0.671,0.969,0.613,1.220,0.861,0.383,0.676,0.635,�k�k��,3.0,��
2021/02/07,20:30,0.668,0.965,0.613,1.220,0.863,0.381,0.675,0.635,�k�k��,4.0,��
2021/02/07,20:40,0.670,0.967,0.612,1.221,0.861,0.382,0.674,0.634,�k�k��,4.0,��
2021/02/07,20:50,0.671,0.967,0.614,1.220,0.861,0.381,0.675,0.634,�k�k��,4.7,��
2021/02/07,21:00,0.668,0.966,0.613,1.224,0.864,0.380,0.676,0.633,�k�k��,5.3,��
2021/02/07,21:10,0.670,0.966,0.613,1.218,0.861,0.382,0.673,0.635,�k,5.4,��
2021/02/07,21:20,0.669,0.964,0.612,1.220,0.861,0.381,0.674,0.634,�k,4.9,��
2021/02/07,21:30,0.670,0.966,0.613,1.220,0.860,0.380,0.673,0.635,�k,5.5,��
2021/02/07,21:40,0.669,0.965,0.613,1.221,0.862,0.381,0.674,0.634,�k�k��,5.7,��
2021/02/07,21:50,0.668,0.966,0.611,1.217,0.862,0.382,0.673,0.635,�k�k��,5.6,��
2021/02/07,22:00,0.669,0.965,0.613,1.219,0.860,0.382,0.674,0.634,�k�k��,4.5,��
2021/02/07,22:10,0.669,0.964,0.612,1.219,0.861,0.381,0.672,0.634,�k�k��,4.6,��
2021/02/07,22:20,0.668,0.964,0.612,1.220,0.862,0.380,0.674,0.633,�k��,2.2,��
2021/02/07,22:30,0.669,0.965,0.613,1.219,0.861,0.381,0.673,0.634,�k�k��,2.8,��
2021/02/07,22:40,0.667,0.968,0.612,1.220,0.862,0.381,0.674,0.634,�k�k��,3.5,��
2021/02/07,22:50,0.667,0.964,0.612,1.218,0.860,0.381,0.673,0.633,�k,4.1,��
2021/02/07,23:00,0.669,0.965,0.613,1.221,0.865,0.383,0.674,0.634,�k��,1.2,��
2021/02/07,23:10,0.667,0.965,0.612,1.219,0.862,0.381,0.674,0.633,�k��,1.9,��
2021/02/07,23:20,0.668,0.963,0.614,1.218,0.861,0.381,0.673,0.635,�k��,1.5,��
2021/02/07,23:30,0.670,0.964,0.612,1.220,0.860,0.381,0.674,0.635,�k��,0.9,��
2021/02/07,23:40,0.670,0.965,0.613,1.218,0.862,0.382,0.673,0.633,�k��,2.3,��
2021/02/07,23:50,0.670,0.966,0.612,1.220,0.862,0.380,0.675,0.634,�k��,3.5,��
